Location: Oklahoma City
(35.4680°N, 97.5160°W)
Time: 15:39:21
(UTC-05:00)

ISS - Visible Passes

Search period start: 06 May 2016 00:00
Search period end: 16 May 2016 00:00
Orbit: 402 x 405 km, 51.6° (Epoch: 06 May)

Date Brightness Start Highest point End Pass type
(mag) Time Alt. Az. Time Alt. Az. Time Alt. Az.
06 May -0.6 05:15:07 10° SSE 05:16:23 12° SE 05:17:40 10° ESE visible
07 May -3.2 05:56:43 10° SW 05:59:57 72° SE 06:03:13 10° NE visible
08 May -2.0 05:06:08 22° S 05:07:30 31° SE 05:10:26 10° ENE visible
09 May -0.7 04:15:46 14° ESE 04:15:46 14° ESE 04:17:04 10° E visible
09 May -2.5 05:48:25 11° WSW 05:51:17 41° NW 05:54:24 10° NE visible
10 May -3.4 04:57:57 51° SW 04:58:41 88° NNW 05:01:57 10° NE visible
11 May -1.4 04:07:25 27° E 04:07:25 27° E 04:09:15 10° ENE visible
11 May -1.3 05:40:17 10° W 05:42:43 19° NNW 05:45:11 10° NNE visible
12 May -2.2 04:49:25 31° WNW 04:49:59 33° NW 04:52:59 10° NNE visible
13 May -1.4 03:58:44 30° NE 03:58:44 30° NE 04:00:35 10° NE visible
13 May -0.6 05:33:17 10° NW 05:34:17 11° NNW 05:35:16 10° N visible
14 May -1.1 04:40:36 16° NW 04:41:24 17° NNW 04:43:37 10° NNE visible
15 May -0.9 03:49:48 21° N 03:49:48 21° N 03:51:27 10° NNE visible
